Location: Stigler
(35.2540°N, 95.1230°W)
Time: 11:52:35
(UTC-05:00)

Cosmos 2082 Rocket - Pass Details

Date: 26 September 2017
Orbit: 831 x 856 km, 71.0° (Epoch: 17 October)

Event Time Altitude Azimuth Distance (km) Brightness Sun altitude
Rises 21:31:27 0° 203° (SSW) 3,371 5.4 -29.0°
Reaches altitude 10° 21:33:52 10° 204° (SSW) 2,443 4.6 -29.5°
Enters shadow 21:35:39 21° 206° (SSW) 1,785 3.9 -29.8°
Exits shadow 21:45:42 - 19° (NNE) 2,674 4.8 -31.7°
Sets 21:47:38 0° 20° (NNE) 3,417 5.4 -32.1°
